sat.trackr.live / text

‹ back to catalog

STARLINK-33707

NORAD 63401 · 2025-065C

PAYLOAD ACTIVE UNKNOWN

§ Identity

Operator
Country
US
Launch date
2025-03-31
Launch site
AFETR
Launch vehicle
Mass (kg)
RCS (m²)

Purposes: comms

External: N2YO · Heavens-Above · Gunter

§ Orbital elements

Epoch: 2026-09-20T21:10:43.286016Z

Period
94.27 min
Inclination
43.0036°
Eccentricity
0.0001532
Mean motion
15.27587241 rev/d
Perigee alt
482.0 km
Apogee alt
484.1 km
Semi-major
6,861.2 km
B*
3.5736e-4
RAAN
84.6106°
Arg perigee
275.9290°
Mean anomaly
84.1387°
Rev number
8,269

§ Raw data

STARLINK-337071 63401U 25065C   26263.88244544  .00009587  00000+0  35736-3 0  99952 63401  43.0036  84.6106 0001532 275.9290  84.1387 15.27587241 82690

JSON: /api/v1/satellites/63401 · /tle

For live sub-satellite position, see the globe view (requires WebGL).

§ Visibility from observer

Set your observer location to see the next 7 days of passes ≥ 10°. The values pass through the URL so the page stays shareable.

No JS? Fill the form by hand. The geolocation button needs JavaScript.